User: anonymous
Location: Innerarity Island Observatory
(30.3139°N, 87.4867°W)
Time: 11:01:33
(UTC-05:00)
Language:

JAS-2 - Orbit

View from above orbital plane
View from above orbital plane
View from above satellite
View from above satellite

Ground track
Ground track

The orbit data is extracted from the following two-line orbital elements,

1 24278U 96046B   14232.04152520 -.00000002  00000-0  31329-4 0  4449
2 24278 098.5134 237.0896 0351467 131.8951 299.1465 13.53027478889308
Epoch (UTC): 20 August 2014 00:59:47
Eccentricity: 0.0351467
inclination: 98.5134°
perigee height: 799 km
apogee height: 1322 km
right ascension of ascending node: 237.0896°
argument of perigee: 131.8951°
revolutions per day: 13.53027478
mean anomaly at epoch: 299.1465°
orbit number at epoch: 88930

The dashed part of the orbit path shows where the satellite is in the earth's shadow,  

DLR